Content
SEND FEEDBACK

Daily
Averages
Monthly
Summary
United States of America

DORSET, VERMONT


Home > North America > United States > Vermont
Elevation: 980 feet     Latitude: 43 15N     Longitude: 073 06W

WEATHER
 
SELECT A DAY
Number of Records: 454,511;   Date Range: 1/1/95 - 7/23/14
 
SHARE

PRINT THIS DATA

[ ← Previous Day ]
WEATHER ALMANAC - MAY 4, 2014
[ Next Day → ]
[ °C ]   °F
Weather ElementAverageHighLow
Temperature45.3 °F48.2 °F (1:15 pm)42.8 °F (8:55 pm)
Dewpoint39.1 °F44.6 °F (12:35 am)35.6 °F (10:15 am)
Humidity79.1 %93 % (12:35 am)66 % (10:15 am)
Barometer29.61 in29.71 in (11:55 pm)29.56 in (12:35 pm)
Wind Speed9.2 mph23 mph (10:15 am)
Wind Gust28.8 mph (10:15 am)
Weather ElementAverage
Visibility9.9 mi
Wind DirectionSW (222.7 °)

Weather ElementTotal
Precipitation0.34 in
Heating Degree Days19.5 (Base 65)
Averaged from 71 records on May 4, 2014
WEATHER CONDITIONS BREAKOUT
WIND DIRECTION BREAKOUT
WEATHER BY HOUR - MAY 4, 2014
[ °C ]   °F
Local TimeTemperatureDewpointHumidityBarometerVisibilityWind DirectionWind SpeedGust SpeedPrecipitationEventsConditions
12:35 AM46.4 °F44.6 °F93 %29.66 in10.0 miCalmMostly Cloudy
12:55 AM46.4 °F44.6 °F93 %29.65 in10.0 miSE (140°)6.9 mphScattered Clouds
1:15 AM46.4 °F42.8 °F87 %29.64 in10.0 miSE (140°)8.1 mphScattered Clouds
1:35 AM46.4 °F42.8 °F87 %29.63 in10.0 miSSE (150°)4.6 mphMostly Cloudy
1:55 AM46.4 °F42.8 °F87 %29.63 in10.0 miSSW (210°)5.8 mphMostly Cloudy
2:15 AM46.4 °F44.6 °F93 %29.65 in9.0 miSSE (150°)8.1 mph0.03 inOvercast
2:35 AM46.4 °F44.6 °F93 %29.65 in9.0 miSouth (180°)3.5 mph0.05 inMostly Cloudy
2:55 AM46.4 °F42.8 °F87 %29.65 in10.0 miSouth (180°)6.9 mph0.09 inOvercast
3:15 AM46.4 °F42.8 °F87 %29.64 in10.0 miSSE (150°)3.5 mph0.01 inOvercast
3:35 AM46.4 °F42.8 °F87 %29.64 in10.0 miCalm0.02 inOvercast
3:55 AM46.4 °F42.8 °F87 %29.63 in10.0 miSouth (190°)3.5 mph0.02 inMostly Cloudy
4:15 AM44.6 °F42.8 °F93 %29.63 in10.0 miSE (130°)4.6 mphMostly Cloudy
4:35 AM44.6 °F42.8 °F93 %29.62 in10.0 miSSW (200°)4.6 mphOvercast
4:55 AM46.4 °F42.8 °F87 %29.62 in10.0 miSW (220°)6.9 mphOvercast
5:15 AM46.4 °F42.8 °F87 %29.62 in10.0 miSSW (210°)6.9 mphOvercast
5:35 AM46.4 °F41.0 °F81 %29.62 in10.0 miSSW (200°)4.6 mphOvercast
5:55 AM46.4 °F39.2 °F76 %29.62 in10.0 miWSW (250°)9.2 mphOvercast
6:15 AM46.4 °F39.2 °F76 %29.62 in10.0 miWSW (240°)10.4 mphOvercast
6:35 AM46.4 °F39.2 °F76 %29.61 in10.0 miSW (230°)11.5 mph18.4 mphOvercast
6:55 AM46.4 °F39.2 °F76 %29.61 in10.0 miSW (230°)15.0 mph26.5 mphOvercast
7:15 AM46.4 °F37.4 °F71 %29.60 in10.0 miWSW (240°)15.0 mph23.0 mphOvercast
7:35 AM46.4 °F37.4 °F71 %29.60 in10.0 miSW (230°)16.1 mph25.3 mphMostly Cloudy
7:55 AM46.4 °F37.4 °F71 %29.60 in10.0 miWSW (240°)13.8 mph23.0 mphMostly Cloudy
8:15 AM46.4 °F37.4 °F71 %29.60 in10.0 miSW (230°)17.3 mph24.2 mphMostly Cloudy
8:35 AM46.4 °F37.4 °F71 %29.60 in10.0 miWSW (250°)11.5 mph19.6 mphOvercast
8:55 AM46.4 °F37.4 °F71 %29.59 in10.0 miWest (270°)13.8 mph20.7 mphOvercast
9:15 AM44.6 °F37.4 °F76 %29.59 in8.0 miWSW (240°)10.4 mph21.9 mphOvercast
9:35 AM46.4 °F37.4 °F71 %29.59 in10.0 miWSW (240°)10.4 mph23.0 mphOvercast
9:55 AM46.4 °F37.4 °F71 %29.58 in10.0 miSW (230°)11.5 mph17.3 mphOvercast
10:15 AM46.4 °F35.6 °F66 %29.57 in10.0 miWSW (240°)23.0 mph28.8 mphOvercast
10:35 AM44.6 °F37.4 °F76 %29.58 in8.0 miSW (230°)12.7 mph27.6 mph0.02 inOvercast
10:55 AM44.6 °F39.2 °F81 %29.58 in10.0 miSW (220°)11.5 mph19.6 mph0.02 inOvercast
11:15 AM44.6 °F39.2 °F81 %29.58 in10.0 miSW (230°)12.7 mph18.4 mphOvercast
11:35 AM44.6 °F37.4 °F76 %29.58 in10.0 miSW (230°)11.5 mph21.9 mphOvercast
11:55 AM46.4 °F37.4 °F71 %29.57 in10.0 miWSW (240°)13.8 mph28.8 mphMostly Cloudy
12:15 PM46.4 °F37.4 °F71 %29.57 in10.0 miWSW (250°)8.1 mphOvercast
12:35 PM46.4 °F37.4 °F71 %29.56 in10.0 miSW (230°)12.7 mph24.2 mphOvercast
12:55 PM46.4 °F39.2 °F76 %29.56 in10.0 miWest (270°)16.1 mph25.3 mphMostly Cloudy
1:15 PM48.2 °F39.2 °F71 %29.56 in10.0 miWest (260°)15.0 mph26.5 mphOvercast
1:35 PM46.4 °F37.4 °F71 %29.56 in10.0 miWest (260°)12.7 mph23.0 mphOvercast
1:55 PM46.4 °F39.2 °F76 %29.57 in10.0 miWest (260°)9.2 mph18.4 mphOvercast
2:15 PM46.4 °F39.2 °F76 %29.57 in10.0 miWest (260°)13.8 mph20.7 mphOvercast
2:35 PM46.4 °F39.2 °F76 %29.58 in10.0 miWest (270°)11.5 mph23.0 mph0.01 inOvercast
2:55 PM46.4 °F37.4 °F71 %29.58 in10.0 miWest (260°)16.1 mph19.6 mph0.01 inMostly Cloudy
3:15 PM44.6 °F35.6 °F71 %29.58 in10.0 miWSW (250°)12.7 mph26.5 mphOvercast
3:35 PM44.6 °F35.6 °F71 %29.58 in10.0 miWSW (240°)15.0 mph20.7 mphOvercast
3:55 PM44.6 °F37.4 °F76 %29.58 in10.0 miWSW (240°)10.4 mph20.7 mphOvercast
4:15 PM44.6 °F39.2 °F81 %29.58 in10.0 miSW (230°)16.1 mph20.7 mphOvercast
4:35 PM44.6 °F39.2 °F81 %29.59 in10.0 miWSW (250°)8.1 mphOvercast
4:55 PM44.6 °F39.2 °F81 %29.58 in10.0 miSW (230°)8.1 mphOvercast
5:15 PM44.6 °F39.2 °F81 %29.58 in10.0 miSW (230°)9.2 mphOvercast
5:35 PM44.6 °F39.2 °F81 %29.59 in10.0 miWest (260°)5.8 mph0.01 inOvercast
5:55 PM44.6 °F39.2 °F81 %29.60 in10.0 miWest (270°)9.2 mph0.01 inOvercast
6:15 PM44.6 °F37.4 °F76 %29.60 in10.0 miWNW (290°)12.7 mph0.01 inOvercast
6:35 PM44.6 °F39.2 °F81 %29.60 in10.0 miWest (270°)9.2 mph0.01 inOvercast
6:55 PM44.6 °F37.4 °F76 %29.61 in10.0 miWNW (290°)10.4 mph0.01 inOvercast
7:15 PM44.6 °F37.4 °F76 %29.61 in10.0 miWest (280°)9.2 mphOvercast
7:35 PM44.6 °F37.4 °F76 %29.62 in10.0 miWest (280°)10.4 mph19.6 mphOvercast
7:55 PM44.6 °F37.4 °F76 %29.62 in10.0 miWest (280°)8.1 mph16.1 mphOvercast
8:15 PM44.6 °F37.4 °F76 %29.63 in10.0 miWest (280°)8.1 mphOvercast
8:35 PM44.6 °F37.4 °F76 %29.64 in10.0 miWNW (290°)9.2 mphOvercast
8:55 PM42.8 °F37.4 °F81 %29.65 in10.0 miWest (280°)8.1 mph0.01 inOvercast
9:15 PM42.8 °F37.4 °F81 %29.66 in10.0 miWNW (290°)5.8 mphOvercast
9:35 PM42.8 °F37.4 °F81 %29.67 in10.0 miNW (310°)4.6 mphOvercast
9:55 PM42.8 °F37.4 °F81 %29.68 in10.0 miCalmOvercast
10:15 PM42.8 °F37.4 °F81 %29.68 in10.0 miWNW (300°)5.8 mphOvercast
10:35 PM42.8 °F37.4 °F81 %29.68 in10.0 miWest (280°)5.8 mphOvercast
10:55 PM42.8 °F37.4 °F81 %29.69 in10.0 miCalmOvercast
11:15 PM42.8 °F37.4 °F81 %29.70 in10.0 miWNW (300°)3.5 mphOvercast
11:35 PM42.8 °F39.2 °F87 %29.70 in10.0 miNW (310°)3.5 mphOvercast
11:55 PM42.8 °F39.2 °F87 %29.71 in10.0 miCalmOvercast
Hourly data recorded from KRUT, located miles away from Dorset, Vermont







STORIES FROM OUR PARTNERS